CSN2703 ZBTJ-ZYTL

Flight info

Callsign CSN2703
Flight time 0h 40m
Altitude 24600
Route MUGLO W34 ANRAT W575 INTIV
Aircraft A320/M-SDE3FGHIRWY/LB1

Departure

Time 2026-04-15 04:43
Airport Tianjin Binhai International Airport (ZBTJ)

Arrival

Time 2026-04-15 05:23
Airport Dalian Zhoushuizi International Airport (ZYTL)
Time Latitude Longitude Altitude Speed Heading
2026-04-15 04:13 39.12602 117.35320 19 ft 0 kts 273°
2026-04-15 04:31 39.12602 117.35321 19 ft 1 kts 273°
2026-04-15 04:31 39.12601 117.35339 19 ft 3 kts 273°
2026-04-15 04:32 39.12600 117.35361 19 ft 3 kts 267°
2026-04-15 04:32 39.12604 117.35385 19 ft 3 kts 232°
2026-04-15 04:32 39.12618 117.35401 23 ft 3 kts 197°
2026-04-15 04:32 39.12636 117.35405 20 ft 2 kts 184°
2026-04-15 04:33 39.12642 117.35406 20 ft 0 kts 183°
2026-04-15 04:35 39.12635 117.35405 20 ft 2 kts 183°
2026-04-15 04:36 39.12608 117.35403 21 ft 5 kts 183°
2026-04-15 04:36 39.12563 117.35400 19 ft 8 kts 183°
2026-04-15 04:36 39.12496 117.35395 20 ft 11 kts 183°
2026-04-15 04:36 39.12409 117.35388 19 ft 14 kts 183°
2026-04-15 04:37 39.12302 117.35379 19 ft 17 kts 185°
2026-04-15 04:37 39.12258 117.35300 19 ft 12 kts 248°
2026-04-15 04:37 39.12227 117.35190 19 ft 14 kts 248°
2026-04-15 04:37 39.12188 117.35059 19 ft 16 kts 267°
2026-04-15 04:38 39.12261 117.34981 19 ft 15 kts 333°
2026-04-15 04:38 39.12363 117.34919 19 ft 17 kts 335°
2026-04-15 04:38 39.12479 117.34847 19 ft 20 kts 335°
2026-04-15 04:38 39.12612 117.34769 21 ft 22 kts 335°
2026-04-15 04:39 39.12760 117.34677 21 ft 25 kts 332°
2026-04-15 04:39 39.12922 117.34575 20 ft 27 kts 334°
2026-04-15 04:39 39.13100 117.34465 19 ft 30 kts 334°
2026-04-15 04:39 39.13294 117.34348 21 ft 32 kts 335°
2026-04-15 04:40 39.13501 117.34224 19 ft 34 kts 335°
2026-04-15 04:40 39.13718 117.34087 20 ft 36 kts 334°
2026-04-15 04:40 39.13946 117.33947 19 ft 37 kts 334°
2026-04-15 04:40 39.14114 117.33829 20 ft 15 kts 300°
2026-04-15 04:41 39.14107 117.33774 19 ft 7 kts 253°
2026-04-15 04:41 39.14084 117.33713 19 ft 9 kts 245°
2026-04-15 04:41 39.14043 117.33646 19 ft 11 kts 200°
2026-04-15 04:41 39.13968 117.33676 19 ft 13 kts 154°
2026-04-15 04:42 39.13878 117.33731 19 ft 16 kts 154°
2026-04-15 04:42 39.13720 117.33829 22 ft 53 kts 154°
2026-04-15 04:42 39.13178 117.34165 19 ft 117 kts 154°
2026-04-15 04:42 39.12296 117.34710 46 ft 161 kts 153°
2026-04-15 04:43 39.11341 117.35342 765 ft 151 kts 152°
2026-04-15 04:43 39.10378 117.35939 1371 ft 161 kts 155°
2026-04-15 04:43 39.09297 117.36596 1765 ft 183 kts 155°
2026-04-15 04:43 39.08085 117.37331 2207 ft 200 kts 158°
2026-04-15 04:44 39.07934 117.37423 2275 ft 201 kts 157°
2026-04-15 04:44 39.06652 117.38205 2903 ft 207 kts 158°
2026-04-15 04:44 39.05271 117.39043 3289 ft 232 kts 158°
2026-04-15 04:44 39.03735 117.39978 3791 ft 255 kts 159°
2026-04-15 04:45 39.02098 117.40978 4632 ft 264 kts 159°
2026-04-15 04:45 39.00431 117.42002 5559 ft 268 kts 159°
2026-04-15 04:45 38.98832 117.43318 6463 ft 280 kts 140°
2026-04-15 04:45 38.97651 117.45352 7308 ft 291 kts 117°
2026-04-15 04:46 38.97126 117.47886 8176 ft 299 kts 94°
2026-04-15 04:46 38.97667 117.53210 10012 ft 303 kts 80°
2026-04-15 04:46 38.98013 117.55950 10468 ft 322 kts 80°
2026-04-15 04:47 38.98379 117.58892 10703 ft 345 kts 80°
2026-04-15 04:47 38.98760 117.62041 10892 ft 368 kts 81°
2026-04-15 04:47 38.99157 117.65358 11333 ft 380 kts 81°
2026-04-15 04:47 38.99559 117.68739 12000 ft 385 kts 81°
2026-04-15 04:48 39.00120 117.72118 12679 ft 389 kts 73°
2026-04-15 04:48 39.00870 117.75480 13391 ft 393 kts 73°
2026-04-15 04:48 39.01628 117.78883 14056 ft 398 kts 73°
2026-04-15 04:48 39.02389 117.82317 14626 ft 402 kts 73°
2026-04-15 04:49 39.03160 117.85801 15179 ft 407 kts 73°
2026-04-15 04:49 39.03938 117.89323 15738 ft 412 kts 73°
2026-04-15 04:49 39.04722 117.92886 16298 ft 417 kts 73°
2026-04-15 04:49 39.05514 117.96497 16869 ft 422 kts 73°
2026-04-15 04:50 39.06246 118.00173 17450 ft 427 kts 79°
2026-04-15 04:50 39.06541 118.03994 18033 ft 433 kts 89°
2026-04-15 04:50 39.06325 118.07869 18582 ft 437 kts 100°
2026-04-15 04:50 39.05725 118.11722 19109 ft 441 kts 103°
2026-04-15 04:51 39.05102 118.15598 19638 ft 445 kts 103°
2026-04-15 04:51 39.04479 118.19513 20155 ft 449 kts 103°
2026-04-15 04:51 39.03861 118.23413 20647 ft 452 kts 103°
2026-04-15 04:51 39.03224 118.27447 21129 ft 456 kts 103°
2026-04-15 04:52 39.02588 118.31457 21589 ft 459 kts 103°
2026-04-15 04:52 39.01945 118.35497 22029 ft 463 kts 103°
2026-04-15 04:52 39.01301 118.39507 22448 ft 466 kts 103°
2026-04-15 04:52 39.00641 118.43600 22863 ft 469 kts 103°
2026-04-15 04:53 38.99975 118.47725 23278 ft 473 kts 103°
2026-04-15 04:53 38.99306 118.51870 23669 ft 476 kts 103°
2026-04-15 04:53 38.98631 118.56049 24002 ft 479 kts 103°
2026-04-15 04:53 38.97952 118.60249 24321 ft 482 kts 103°
2026-04-15 04:54 38.97266 118.64474 24575 ft 484 kts 104°
2026-04-15 04:54 38.96572 118.68730 24645 ft 490 kts 104°
2026-04-15 04:54 38.95861 118.73058 24652 ft 499 kts 104°
2026-04-15 04:54 38.95141 118.77431 24653 ft 502 kts 104°
2026-04-15 04:55 38.94417 118.81815 24649 ft 502 kts 104°
2026-04-15 04:55 38.93695 118.86213 24652 ft 503 kts 104°
2026-04-15 04:55 38.92974 118.90603 24654 ft 503 kts 104°
2026-04-15 04:55 38.92250 118.94994 24653 ft 503 kts 104°
2026-04-15 04:56 38.91522 118.99383 24653 ft 503 kts 104°
2026-04-15 04:56 38.90791 119.03778 24652 ft 503 kts 104°
2026-04-15 04:56 38.90059 119.08169 24654 ft 503 kts 104°
2026-04-15 04:56 38.89324 119.12558 24650 ft 503 kts 104°
2026-04-15 04:57 38.88587 119.16940 24645 ft 503 kts 104°
2026-04-15 04:57 38.87848 119.21328 24646 ft 502 kts 104°
2026-04-15 04:57 38.87112 119.25703 24640 ft 502 kts 104°
2026-04-15 04:57 38.86374 119.30086 24641 ft 502 kts 104°
2026-04-15 04:58 38.85634 119.34465 24637 ft 502 kts 104°
2026-04-15 04:58 38.84890 119.38847 24636 ft 503 kts 104°
2026-04-15 04:58 38.84140 119.43226 24636 ft 503 kts 104°
2026-04-15 04:58 38.83388 119.47609 24638 ft 503 kts 104°
2026-04-15 04:59 38.82638 119.51986 24639 ft 503 kts 104°
2026-04-15 04:59 38.81890 119.56367 24639 ft 503 kts 104°
2026-04-15 04:59 38.81142 119.60752 24639 ft 503 kts 104°
2026-04-15 04:59 38.80388 119.65134 24643 ft 503 kts 104°
2026-04-15 05:00 38.79626 119.69517 24652 ft 507 kts 104°
2026-04-15 05:00 38.78844 119.73951 24697 ft 514 kts 107°
2026-04-15 05:00 38.77717 119.78257 24643 ft 518 kts 116°
2026-04-15 05:00 38.76076 119.82362 24658 ft 518 kts 125°
2026-04-15 05:01 38.74021 119.86039 24654 ft 498 kts 134°
2026-04-15 05:01 38.71649 119.89194 24658 ft 487 kts 143°
2026-04-15 05:01 38.69103 119.92034 24658 ft 485 kts 144°
2026-04-15 05:01 38.66580 119.94903 24656 ft 487 kts 140°
2026-04-15 05:02 38.64303 119.98144 24654 ft 492 kts 132°
2026-04-15 05:02 38.62192 120.01599 24654 ft 493 kts 132°
2026-04-15 05:02 38.60078 120.05052 24654 ft 493 kts 132°
2026-04-15 05:02 38.57959 120.08501 24654 ft 493 kts 132°
2026-04-15 05:03 38.55887 120.11996 24652 ft 496 kts 128°
2026-04-15 05:03 38.54146 120.15826 24651 ft 501 kts 119°
2026-04-15 05:03 38.52844 120.19970 24652 ft 505 kts 110°
2026-04-15 05:03 38.51999 120.24339 24658 ft 508 kts 103°
2026-04-15 05:04 38.51285 120.28759 24653 ft 508 kts 104°
2026-04-15 05:04 38.50568 120.33175 24652 ft 508 kts 104°
2026-04-15 05:04 38.49844 120.37593 24653 ft 508 kts 104°
2026-04-15 05:04 38.49421 120.40158 24654 ft 0 kts 104°
2026-04-15 05:05 38.49275 120.40884 24681 ft 503 kts 106°
2026-04-15 05:05 38.48478 120.45136 24648 ft 483 kts 104°
2026-04-15 05:05 38.47845 120.49260 24646 ft 465 kts 102°
2026-04-15 05:05 38.47292 120.53258 24651 ft 451 kts 102°
2026-04-15 05:06 38.46757 120.57146 24653 ft 439 kts 102°
2026-04-15 05:06 38.46209 120.60925 24653 ft 429 kts 103°
2026-04-15 05:06 38.45638 120.64615 24658 ft 418 kts 104°
2026-04-15 05:06 38.45055 120.68197 24648 ft 408 kts 104°
2026-04-15 05:07 38.44474 120.71689 24654 ft 397 kts 105°
2026-04-15 05:07 38.43900 120.75108 24518 ft 392 kts 105°
2026-04-15 05:07 38.43336 120.78419 24287 ft 372 kts 105°
2026-04-15 05:07 38.42791 120.81561 24056 ft 355 kts 105°
2026-04-15 05:08 38.42263 120.84599 23596 ft 355 kts 105°
2026-04-15 05:08 38.41714 120.87820 22686 ft 393 kts 105°
2026-04-15 05:08 38.41088 120.91375 21839 ft 438 kts 103°
2026-04-15 05:08 38.40653 120.95339 20910 ft 459 kts 94°
2026-04-15 05:09 38.40688 120.99400 19991 ft 456 kts 83°
2026-04-15 05:09 38.41193 121.03367 19120 ft 451 kts 74°
2026-04-15 05:09 38.42001 121.07203 18239 ft 447 kts 72°
2026-04-15 05:09 38.42804 121.11016 17268 ft 443 kts 73°
2026-04-15 05:10 38.43584 121.14776 16406 ft 437 kts 73°
2026-04-15 05:10 38.44355 121.18518 15524 ft 434 kts 73°
2026-04-15 05:10 38.45116 121.22223 14680 ft 430 kts 74°
2026-04-15 05:10 38.45872 121.25899 13864 ft 427 kts 74°
2026-04-15 05:11 38.46808 121.29467 13074 ft 420 kts 65°
2026-04-15 05:11 38.48109 121.32756 12266 ft 410 kts 60°
2026-04-15 05:11 38.49407 121.35877 11553 ft 386 kts 60°
2026-04-15 05:11 38.50622 121.38803 11211 ft 362 kts 60°
2026-04-15 05:12 38.51772 121.41577 11083 ft 345 kts 60°
2026-04-15 05:12 38.52871 121.44227 10958 ft 330 kts 60°
2026-04-15 05:12 38.53926 121.46771 10882 ft 319 kts 62°
2026-04-15 05:12 38.54947 121.49234 10727 ft 309 kts 62°
2026-04-15 05:13 38.55946 121.51645 10471 ft 305 kts 62°
2026-04-15 05:13 38.56930 121.54022 10218 ft 300 kts 62°
2026-04-15 05:13 38.57907 121.56386 9991 ft 301 kts 62°
2026-04-15 05:13 38.58903 121.58743 9865 ft 302 kts 57°
2026-04-15 05:14 38.60210 121.60818 9734 ft 299 kts 42°
2026-04-15 05:14 38.61853 121.62413 9600 ft 296 kts 28°
2026-04-15 05:14 38.63701 121.63551 9458 ft 295 kts 22°
2026-04-15 05:14 38.65581 121.64649 9010 ft 298 kts 23°
2026-04-15 05:15 38.67430 121.65737 8697 ft 295 kts 23°
2026-04-15 05:15 38.69306 121.66848 8248 ft 297 kts 23°
2026-04-15 05:15 38.71160 121.67948 7969 ft 292 kts 23°
2026-04-15 05:15 38.72996 121.69038 7534 ft 288 kts 23°
2026-04-15 05:16 38.74805 121.70114 6913 ft 286 kts 23°
2026-04-15 05:16 38.76606 121.71183 6305 ft 284 kts 23°
2026-04-15 05:16 38.78392 121.72243 5698 ft 281 kts 23°
2026-04-15 05:16 38.80130 121.73274 5437 ft 265 kts 23°
2026-04-15 05:17 38.81732 121.74225 5377 ft 243 kts 23°
2026-04-15 05:17 38.82720 121.74814 5315 ft 230 kts 23°
2026-04-15 05:17 38.84150 121.75668 5226 ft 225 kts 23°
2026-04-15 05:17 38.85588 121.76445 5125 ft 223 kts 13°
2026-04-15 05:18 38.87125 121.76772 4687 ft 227 kts
2026-04-15 05:18 38.88710 121.76979 4082 ft 231 kts
2026-04-15 05:18 38.90316 121.77180 3554 ft 231 kts
2026-04-15 05:18 38.91854 121.77375 3478 ft 217 kts
2026-04-15 05:19 38.93342 121.77424 3432 ft 212 kts 343°
2026-04-15 05:19 38.94538 121.76441 3356 ft 204 kts 303°
2026-04-15 05:19 38.94963 121.74746 3058 ft 201 kts 275°
2026-04-15 05:19 38.95090 121.72962 2781 ft 200 kts 275°
2026-04-15 05:20 38.95223 121.71209 2523 ft 194 kts 275°
2026-04-15 05:20 38.95353 121.69529 2234 ft 184 kts 276°
2026-04-15 05:20 38.95477 121.67944 2029 ft 171 kts 276°
2026-04-15 05:20 38.95590 121.66511 1973 ft 152 kts 276°
2026-04-15 05:21 38.95692 121.65199 1973 ft 144 kts 275°
2026-04-15 05:21 38.95789 121.63924 1817 ft 145 kts 275°
2026-04-15 05:21 38.95894 121.62561 1243 ft 161 kts 275°
2026-04-15 05:21 38.96003 121.61159 1014 ft 153 kts 275°
2026-04-15 05:22 38.96104 121.59851 838 ft 143 kts 275°
2026-04-15 05:22 38.96200 121.58615 633 ft 139 kts 275°
2026-04-15 05:22 38.96297 121.57363 430 ft 139 kts 275°
2026-04-15 05:22 38.96391 121.56145 257 ft 139 kts 276°
2026-04-15 05:23 38.96485 121.54928 152 ft 126 kts 276°
2026-04-15 05:23 38.96555 121.54012 150 ft 79 kts 275°
2026-04-15 05:23 38.96589 121.53555 150 ft 38 kts 276°
2026-04-15 05:23 38.96546 121.53244 150 ft 27 kts 244°
2026-04-15 05:24 38.96489 121.53093 150 ft 12 kts 238°
2026-04-15 05:24 38.96440 121.53108 150 ft 11 kts 102°
2026-04-15 05:24 38.96426 121.53214 150 ft 13 kts 88°
2026-04-15 05:24 38.96433 121.53346 150 ft 16 kts 92°
2026-04-15 05:25 38.96421 121.53504 150 ft 19 kts 95°
2026-04-15 05:25 38.96408 121.53689 150 ft 22 kts 95°
2026-04-15 05:25 38.96392 121.53896 150 ft 24 kts 95°
2026-04-15 05:25 38.96370 121.54001 150 ft 2 kts 196°
2026-04-15 05:26 38.96347 121.53996 150 ft 5 kts 188°
2026-04-15 05:26 38.96304 121.53992 150 ft 8 kts 182°
2026-04-15 05:26 38.96246 121.53989 150 ft 5 kts 182°
2026-04-15 05:26 38.96242 121.53989 150 ft 0 kts 182°